CAPE
970 805 732 1638 1647 1664 1686 1708 1890 2067 2076 2203 2388 2343 2166 2234 2134 2048 1895 1841 1815 1775 1827 1852 1918 1845 1747 1618 1423 1220 1194 1212 1366 1470 1353 1407 1248 962 884 690 632 672 616 540 397 323 445 458 305 176 167 206 257 304 264 176 136 44 27 300 806 735 762 801 676 575 757 651 566 816 929 1128 1244 1112 1224 1350 1288 1335 1369 1194 1163 1159 1334 1121 1505
900 787 818 928 1595 1663 1614 1654 1846 2024 2143 2181 2249 2153 2230 2249 2166 2079 2005 1953 1956 1994 2011 1989 1951 1873 1588 1521 1359 1225 1145 1137 1318 1232 1293 1172 1198 829 670 747 693 662 527 314 391 531 433 368 347 352 495 350 386 432 445 365 210 143 152 708 652 712 763 769 753 690 808 822 659 558 695 953 907 860 1080 1100 1224 1246 1286 1314 1075 1188 987 1143 1233
872 793 882 1069 1544 1612 1627 1661 1804 1877 1929 2062 2158 2243 2245 2043 2032 2073 2043 2061 2046 2056 2002 1945 1869 1589 1488 1290 1141 1054 982 1041 1148 1135 895 957 1004 774 682 835 753 594 315 537 639 616 530 550 568 599 559 507 436 418 476 512 438 352 345 447 596 800 694 588 780 872 865 953 1064 1006 887 699 672 839 957 1107 1200 1250 1260 1280 994 1008 996 981 1235
775 786 704 1130 1514 1553 1575 1572 1722 1792 1812 1836 1863 1988 1928 1909 1976 2002 2026 2029 2001 1920 1827 1788 1718 1572 1390 1158 1150 995 945 911 925 819 786 746 972 813 615 787 547 390 659 831 888 675 729 686 787 692 735 775 846 603 444 436 369 286 270 366 588 694 760 500 482 572 573 804 1301 903 531 567 728 806 876 880 1187 1108 1246 1286 1272 1130 1040 1206 1064
662 689 628 502 1185 1539 1535 1592 1660 1711 1710 1745 1829 1793 1866 1878 1874 1917 1952 1948 1897 1791 1700 1646 1616 1413 1269 1155 1013 999 998 899 866 836 798 844 1008 802 731 711 518 853 828 923 845 825 944 917 938 1022 1037 1115 1107 854 533 491 489 387 303 360 507 644 582 610 472 452 421 350 647 908 359 334 393 455 610 673 880 930 874 945 1041 1097 1104 1097 1036
732 624 605 437 844 1428 1514 1514 1524 1595 1654 1697 1752 1711 1736 1808 1835 1816 1762 1813 1773 1689 1690 1642 1494 1371 1142 990 1023 973 993 959 937 998 1164 1189 1140 855 819 943 775 864 971 961 880 968 1128 1167 1099 1222 1225 1193 1218 1144 974 592 509 510 461 395 462 543 464 507 394 243 234 180 422 94 48 237 253 294 918 969 722 706 759 762 872 707 912 888 897
741 603 570 506 840 1337 1436 1383 1419 1458 1544 1641 1632 1628 1611 1682 1712 1677 1625 1663 1694 1676 1694 1566 1364 1288 1165 1117 1042 1053 1045 969 1014 1121 1071 899 1052 1177 1084 1005 927 1161 1191 1033 1158 1294 1397 1365 1368 1319 1359 1250 1364 1404 1388 1065 638 587 558 463 466 436 522 448 240 111 146 163 148 113 90 75 203 294 821 745 490 586 471 453 399 404 526 576 608
709 622 454 618 840 1345 1415 1318 1302 1349 1380 1498 1558 1501 1443 1576 1562 1546 1582 1574 1538 1471 1506 1355 1343 1234 1200 1210 1151 1146 1092 1092 1098 970 948 1077 1389 1444 1158 1007 1235 1652 1804 1640 1484 1604 1604 1596 1529 1415 1448 1319 1299 1324 1244 1243 971 689 561 424 383 449 417 330 149 145 357 370 269 244 224 137 189 182 596 709 573 618 643 369 385 265 406 324 356
586 577 649 416 957 1242 1346 1294 1252 1269 1303 1389 1422 1367 1525 1551 1500 1514 1518 1474 1389 1304 1395 1358 1300 1377 1329 1350 1353 1304 1256 1265 1302 1154 1421 1475 1566 1445 1442 1413 1716 1941 1810 1664 1649 1691 1683 1614 1495 1612 1426 1432 1331 1306 1226 1211 1009 695 590 502 397 352 341 194 239 199 232 335 347 317 260 204 196 191 163 181 278 442 545 521 430 350 324 264 206
739 713 736 781 964 1429 1295 1205 1248 1242 1231 1261 1495 1552 1601 1596 1567 1641 1587 1538 1420 1496 1551 1462 1251 1256 1341 1461 1448 1411 1533 1399 1315 1256 1462 1957 1864 1627 1647 1722 1874 1661 1692 1654 1702 1808 1704 1613 1517 1482 1456 1273 1178 1208 1262 1262 1084 752 699 516 366 329 230 106 122 119 241 367 394 435 487 338 222 182 159 225 156 182 194 184 262 239 244 175 159
775 744 961 800 981 1386 1268 1336 1397 1284 1178 1234 1270 1449 1540 1548 1603 1645 1655 1606 1554 1460 1409 1261 1225 1276 1321 1280 1276 1361 1549 1317 1164 1166 1296 1612 1880 1826 1850 2086 2073 1951 1856 1991 1918 1670 1641 1593 1468 1406 1242 1268 1411 1405 1394 1350 1284 926 746 536 320 236 196 174 722 549 427 359 490 377 267 310 238 197 196 135 89 100 68 151 230 213 318 302 299
700 964 884 795 1508 1365 1385 1431 1442 1307 1284 1368 1416 1295 1452 1564 1558 1651 1602 1440 1488 1391 1555 1476 1316 1201 1358 1375 1483 1381 1476 1295 1167 1175 1213 1224 1184 1264 1737 1966 1834 1970 1852 1695 1644 1591 1519 1404 1388 1237 1156 1357 1440 1481 1492 1466 1432 1142 920 689 444 303 192 220 377 671 618 588 483 407 376 311 254 438 524 448 474 480 299 198 191 328 276 130 64
862 920 898 1245 1112 1488 1462 1447 1471 1480 1488 1567 1649 1336 1281 1329 1456 1659 1538 1658 1625 1570 1570 1585 1568 1524 1382 1241 1356 1425 1479 1362 1400 1315 1240 995 1002 1102 1234 1542 1623 1676 1691 1606 1483 1389 1224 1248 1162 1165 1310 1482 1573 1640 1659 1647 1507 1197 1022 709 458 324 339 371 597 493 523 584 548 452 362 406 272 191 168 268 172 121 102 73 38 65 26 1 162
1050 1044 1001 755 1106 1453 1441 1410 1471 1567 1642 1728 1742 1737 1690 1729 1728 1689 1571 1594 1712 1676 1635 1756 1799 1754 1627 1603 1590 1633 1633 1590 1610 1550 926 874 1055 1310 1408 1401 1334 1349 1522 1478 1339 1235 1233 1196 1169 1272 1477 1645 1601 1649 1738 1706 1517 1183 1008 637 343 359 386 327 273 420 618 602 556 437 406 354 226 216 187 138 143 125 101 52 111 107 33 113 102
1205 1067 1048 1038 1025 1188 1596 1463 1521 1588 1597 1634 1646 1658 1621 1608 1626 1569 1588 1660 1650 1714 1782 1760 1822 1764 1722 1707 1486 1404 1778 1736 1528 1333 958 1090 1395 1468 1507 1504 1421 1382 1384 1351 1241 1072 1059 1138 1136 1305 1420 1448 1556 1574 1620 1516 1372 1140 934 665 496 494 573 285 251 354 442 619 520 390 380 347 421 431 352 321 241 172 97 178 148 116 109 106 87
1417 1192 1050 1103 1140 1087 1232 1521 1525 1515 1553 1589 1578 1594 1574 1620 1630 1615 1672 1681 1692 1820 1734 1638 1632 1528 1554 1614 1378 1306 2037 1828 1446 1317 1460 1545 1507 1569 1561 1476 1314 1364 1366 1238 1104 1113 1144 1174 1355 1468 1395 1407 1547 1481 1472 1398 1309 1158 941 727 466 441 452 442 427 548 592 562 297 187 117 259 464 184 119 139 132 164 142 99 70 61 58 23 19
1432 1196 983 1050 1248 1055 961 1240 1502 1456 1372 1423 1488 1471 1539 1604 1598 1655 1649 1679 1751 1846 1862 1808 1518 1398 1285 1239 1443 2086 1974 1775 1706 1619 1599 1558 1490 1563 1410 1285 1190 1182 1164 1146 1092 1137 1190 1190 1359 1501 1452 1398 1541 1472 1395 1362 1314 1130 1075 987 847 640 567 476 575 690 762 715 679 561 456 304 234 225 284 257 97 55 41 30 27 9 30 41 2
1303 1380 1231 1155 1228 1196 1204 1128 1610 1496 1617 1490 1492 1438 1540 1577 1615 1677 1672 1686 1772 1773 1822 1780 1788 1781 1858 1970 2137 2079 1907 1543 1768 1632 1300 1475 1466 1588 1443 1252 1216 1214 1143 1127 1142 1165 1158 1268 1476 1519 1487 1422 1552 1409 1430 1461 1350 1260 1101 937 819 660 615 506 534 486 747 680 576 470 344 279 390 285 211 212 278 213 180 276 252 159 102 91 24
1365 1490 1390 1312 1336 1372 1228 1308 1474 1501 1644 1472 1615 1575 1548 1598 1626 1661 1680 1683 1790 1764 1781 1747 1743 1746 1718 1829 1861 1881 1771 1843 1826 1706 1535 1483 1493 1545 1430 1371 1314 1242 1164 1139 1098 1130 1192 1364 1452 1544 1531 1469 1622 1484 1494 1435 1414 1253 1134 983 714 803 595 856 735 643 798 671 406 285 286 384 246 231 337 280 98 357 313 218 146 73 35 60 72
1384 1440 1554 1517 1493 1403 1274 1208 1338 1428 1624 1414 1297 1444 1638 1575 1658 1548 1732 1800 1807 1829 1774 1691 1649 1750 1718 1684 1700 1581 1507 1221 1424 1523 1530 1532 1419 923 1372 1365 1213 1197 1178 1142 1143 1043 1053 1321 1354 1405 1564 1664 1708 1602 1525 1460 1350 1426 1219 869 843 638 1028 934 775 643 553 482 444 365 418 332 265 283 272 240 238 144 288 423 343 266 219 168 107
1624 1554 1566 1645 1462 1464 1388 1329 1409 1436 1591 1589 1323 1277 1801 1730 1801 1824 1822 1808 1865 1778 1805 1616 1621 1742 1801 1815 1676 1223 1707 1114 1689 1728 1569 1562 1209 1260 1301 1225 1164 1185 1183 1191 1144 1037 1045 1065 1150 1213 1406 1689 1812 1570 1480 1481 1461 1293 1233 1138 770 1460 840 855 760 744 513 258 143 125 296 241 220 218 214 207 198 172 217 224 199 156 134 143 139
1729 1587 1562 1546 1501 1554 1316 1598 1494 1414 1520 1676 1304 1038 1688 1444 1052 1410 1438 1826 1918 1812 1856 1736 1368 1406 1320 1534 1481 1479 1732 1527 1768 1458 1382 1434 1330 1228 1268 1276 1270 1283 1230 1133 1152 1159 1091 908 748 938 1302 1685 1538 1348 1432 1524 1423 1350 1220 1162 1610 927 668 620 542 381 462 500 274 386 382 397 409 419 352 292 229 210 264 150 135 115 77 78 76
1578 1598 1565 1625 1758 1741 1713 1676 1804 1579 1659 1644 1364 1249 1080 1121 1118 1097 1221 1370 1628 1898 1484 1297 1574 1490 1256 1329 1858 1916 1523 873 623 1464 1331 1002 1372 1269 1366 1320 1199 1179 1076 1071 1034 1052 1025 909 858 651 992 1421 1831 1459 1391 1376 1423 1412 1347 1496 1054 647 833 627 528 481 455 563 582 541 542 638 640 474 335 308 283 269 325 333 253 179 135 71 42
1603 1507 1516 1616 1828 1914 1738 1795 1776 1710 1653 1888 1523 1566 1104 1572 1108 1643 1740 1578 1854 926 936 1143 1206 1147 1261 1918 2000 1826 920 1216 1088 1102 1069 1501 1411 1305 1084 932 916 856 824 771 929 1105 973 759 628 301 497 1039 1280 1159 1600 1496 1383 1197 1320 1209 1077 901 710 665 463 472 598 528 587 728 761 778 784 761 737 635 348 277 207 153 113 72 60 65 70
1684 1612 1586 1744 1772 1925 2090 2038 1915 1753 2106 1996 1941 1866 1709 1747 1435 1833 1659 1100 895 919 1299 1603 1376 1155 1469 1986 1845 1655 896 1091 1348 1091 1703 765 641 720 757 685 511 555 593 542 618 520 542 172 226 467 618 864 1100 1514 1729 1645 1578 1230 1104 1054 1008 1053 796 713 518 596 673 655 912 862 901 965 1018 966 948 821 378 366 342 258 220 176 139 103 81
1641 1760 1816 1900 1866 1568 2165 1822 1792 1980 2045 2180 2178 2100 2254 1966 1917 2070 1692 1152 667 960 782 1768 929 1089 831 1485 2193 2064 1368 618 716 774 746 996 606 575 505 531 405 288 373 388 346 210 357 274 272 418 640 867 992 1527 1732 1697 1512 956 956 857 866 982 918 839 742 766 839 762 727 1584 1417 1427 1330 1117 878 438 436 331 240 238 205 140 108 132 64
1691 1716 1934 1900 1871 1999 2269 2132 1933 2135 2101 1974 2500 2211 2080 1982 1967 1981 1685 1328 1185 664 822 766 1600 1272 846 812 1346 1398 720 951 1034 1186 1117 850 531 491 593 447 281 289 428 260 273 276 199 286 438 379 543 747 1208 1713 1900 1817 1262 966 810 804 916 1050 980 891 882 979 1047 634 1284 1735 1486 1327 1239 1162 744 525 487 370 256 199 171 130 100 101 109
1807 1844 1814 1915 1973 2363 2208 2035 1833 2037 2107 1993 1974 2084 1929 1840 1893 1312 1534 1659 1572 1298 869 966 1016 833 505 821 705 817 974 1094 1081 1045 869 762 684 673 431 471 672 437 477 374 248 287 366 353 360 316 336 655 1190 1646 1622 1450 1240 1021 810 902 1023 1205 1158 1052 1128 1202 1146 999 941 1560 1256 1366 1297 1155 968 985 756 477 366 297 262 226 201 152 130
1954 1872 1737 1989 2390 2434 2104 1951 2095 2259 2159 2008 1919 2003 2083 2228 2177 1831 1792 1762 2062 2083 1438 1010 1242 1156 1088 1091 1401 1036 821 1103 1006 924 950 954 591 510 422 489 653 557 619 567 456 353 426 512 348 244 378 811 1192 1441 1404 1387 1295 1069 909 1009 1212 1275 1277 1212 1020 956 1330 1197 1067 1335 1312 1266 1176 1115 964 667 583 639 522 351 308 240 196 147 106
2089 1972 2183 2212 2469 2432 2280 2313 2310 2150 1799 1835 1803 1823 1996 2191 2220 2008 1700 1266 1446 1848 1620 1573 1663 1020 1160 1074 1693 1336 1131 1098 1050 924 1039 927 577 588 539 549 573 679 580 679 807 510 471 550 490 524 432 794 1100 1337 1329 1329 1158 1102 1042 1145 1227 1252 1371 1307 880 901 1175 1183 878 1187 1289 1394 1280 1526 801 337 712 808 732 640 357 217 184 146 144
2059 2007 2200 2320 1900 2366 2447 2444 2450 2186 1890 1810 1929 1976 2115 2350 2181 1928 1355 1106 1513 1036 921 1087 1588 706 913 360 1063 1395 1306 1310 1191 1053 914 770 589 629 699 607 682 695 757 809 853 663 765 797 776 649 593 670 1098 1322 1196 1176 1065 962 1102 1148 1309 1461 1420 1166 887 930 1010 1162 903 760 1061 1629 1706 1733 1806 1064 1002 926 849 712 450 358 298 277 270
2092 2114 1999 2308 2301 2102 2440 2576 2198 2055 2244 2135 2048 1927 1931 1848 1876 1470 1040 1111 788 699 754 821 1150 1570 1058 1040 883 1311 1317 1509 1123 940 734 669 634 814 811 824 725 861 1060 808 867 838 961 968 920 1097 872 1057 1175 1216 1065 918 784 738 902 1167 1316 1426 1283 1136 1116 1073 1043 1166 1250 1289 1275 924 1516 1596 1391 1326 839 695 777 720 550 510 421 262 255
2022 2106 1906 2190 2246 2195 2433 2458 2105 2006 2002 2079 2169 1840 1359 1736 1834 1772 1285 980 1004 734 640 836 1625 584 1722 1590 1086 856 1006 948 1511 879 718 654 913 824 929 870 889 918 890 898 985 1134 1079 1129 1589 1713 1394 1300 1194 1314 1096 937 749 763 986 1257 1427 1250 1143 1016 1066 1047 1031 1079 1008 939 964 867 744 1263 1132 1115 1117 1045 823 676 747 833 818 842 749
2006 2049 2001 2152 2343 2325 2229 1855 1637 1394 1532 1556 1514 1266 989 830 948 1256 1040 969 1304 1063 724 1141 1281 1585 648 868 1204 1076 1315 1552 1352 1448 919 823 1153 1080 1012 906 870 929 991 1089 1012 1102 1212 1205 1334 1429 1427 1244 1254 1311 1166 934 992 1098 1348 1602 1670 1635 1285 996 1184 1238 1110 1035 961 776 672 741 682 1058 928 918 964 1034 1015 899 880 948 980 926 756
2132 2119 1902 1928 2366 2201 1829 1419 1393 1242 1165 1166 1233 1396 903 1006 1146 1259 1039 894 949 934 1179 1116 983 911 1457 1315 1449 784 760 1226 1316 1310 1036 1097 1103 904 895 938 938 991 949 1179 1356 1480 1482 1402 1346 1255 1420 1259 1209 1111 1027 1053 1415 1600 1646 1573 1416 1212 1245 1126 1025 969 880 959 946 786 688 718 666 943 1136 1149 1039 880 971 841 828 624 932 674 816
2185 2131 1968 2147 1934 2089 1465 1354 1408 1324 1208 1205 1498 1611 1552 1710 1575 967 1410 1019 1152 973 933 964 518 740 1002 1631 1446 956 736 1042 1183 1238 685 740 830 1093 1020 1016 945 1032 972 1131 1364 1349 1523 1544 1532 1571 1352 1263 1128 958 1087 1343 1560 1477 1261 1235 1128 1210 1081 931 954 793 797 813 719 776 752 713 875 655 583 648 762 897 701 770 692 726 795 857 867
2404 2220 1925 1906 2015 1883 1474 1652 1334 1173 1211 944 959 953 836 838 881 880 981 803 592 481 736 1206 697 523 709 1097 1585 1201 916 1036 916 729 763 844 1375 1102 989 1015 1041 1320 1203 1328 1378 1374 1599 1707 1890 1680 1498 1460 1321 1167 1188 1408 1340 1257 1080 937 952 1154 1143 904 756 699 725 829 718 703 732 693 525 778 949 788 401 1099 852 750 588 332 518 649 857
2330 2282 1922 1874 1626 1691 1635 1351 1125 971 1046 889 782 1062 786 977 1221 741 826 666 414 395 886 571 619 878 1064 1517 1315 1123 1162 1296 1113 986 1088 1421 1157 1131 918 1048 1240 1808 1756 1603 1600 1553 1490 1628 1849 1889 1454 1368 1210 1193 1354 1130 974 1013 916 851 891 736 744 977 826 702 852 902 900 927 889 1027 1055 1049 906 887 848 1054 673 585 191 62 29 273 326
2448 2335 2142 2007 1755 1545 1491 1414 1094 1126 990 868 784 819 722 994 613 792 562 842 927 220 377 490 510 1418 1097 1169 1244 1314 1230 1438 1251 1082 1382 944 907 1076 1175 1284 1783 1944 1844 1534 1550 1615 1787 1744 1659 1685 1646 1282 1217 1295 1109 735 812 783 815 793 722 768 768 904 1069 1055 923 919 959 784 951 1062 1067 1034 1069 1048 952 891 1012 632 973 773 64 1 82
2085 2357 2214 2113 1828 1596 1480 1260 1050 1090 912 683 780 756 660 385 504 580 547 591 448 575 1096 938 682 830 616 573 683 770 1239 915 727 805 574 922 1382 1179 1265 1428 1844 1898 1715 1321 1368 1587 1807 1767 1653 1540 1446 1285 931 416 880 962 932 887 718 748 790 1139 961 824 838 795 870 839 834 827 809 856 877 1002 1367 1234 896 946 848 798 724 620 276 0 28
2364 2391 2077 2095 1948 1562 1372 1388 1108 899 906 878 1032 771 702 439 594 579 530 538 527 930 1104 1386 1242 1318 1354 1378 1559 1016 1189 937 798 757 1290 1464 1525 1506 1422 1630 1753 1709 1644 1617 1555 1649 1693 1708 1516 1378 1274 1315 1201 732 832 1285 867 676 588 470 367 446 601 597 866 757 784 916 888 827 798 824 790 874 1075 1118 1001 1006 1006 851 652 405 346 420 391
2164 2313 2202 2114 2081 1803 1690 1275 1066 990 924 895 893 702 855 499 310 711 924 639 789 923 1235 1485 1470 1512 1544 1617 1563 1025 872 935 947 1470 1795 1686 1759 1768 1798 1910 1866 1794 1916 1783 1622 1440 1472 1523 1436 1302 1174 1305 1369 1275 1277 1310 958 417 298 300 496 569 333 358 760 647 856 905 1058 908 749 608 718 916 1046 744 577 478 305 203 124 197 293 400 505
2197 2174 2349 2245 2166 1967 1702 1260 1192 1045 996 942 806 697 858 802 1058 766 473 1008 1235 1336 1252 1406 1483 1576 1896 1829 1741 1803 1658 1614 1733 1771 1779 1689 1708 1798 1859 2006 1936 1746 1876 1892 1682 1505 1481 1419 1413 1282 1214 1261 1378 1375 1285 1328 1084 1108 1069 494 305 199 451 644 789 842 912 1030 934 872 894 837 760 880 568 516 312 0 0 0 3 165 318 309 444
2195 2181 2315 2128 1928 1904 1699 1407 1138 1061 1029 960 939 793 629 731 1153 1230 823 1209 1288 1378 1350 1512 1659 1564 1718 1784 1824 1891 1795 1827 1735 1650 1556 1543 1614 1586 1633 1772 1760 1838 1816 1748 1718 1610 1555 1509 1282 1312 1310 1078 936 973 782 1672 1077 719 108 370 414 553 189 744 580 390 420 383 421 424 623 761 569 483 528 253 0 0 0 0 0 152 131 212 404
2125 2043 2010 1962 1958 1888 1778 1470 1195 1216 1091 955 815 799 691 1307 1354 1223 1280 1411 1511 1717 1853 1819 1764 1655 1718 1905 1727 1673 1593 1569 1610 1548 1432 1669 1666 1527 1550 1548 1573 1592 1636 1703 1674 1604 1500 1504 1531 1394 1472 1163 1066 860 687 1690 814 887 656 221 137 454 584 158 455 408 420 335 291 307 409 352 456 416 193 0 0 0 0 0 1 94 121 162 254
2157 2208 1860 1932 1971 1880 1496 1541 1307 1239 1132 983 800 824 868 1321 1269 1408 1495 1536 1597 1614 1767 1704 1723 1788 1624 1630 1517 1497 1488 1483 1552 1735 1573 1504 1470 1479 1373 1360 1452 1438 1540 1642 1687 1581 1570 1469 1534 1534 1413 1494 1344 1050 1273 1031 1606 927 831 1354 762 395 271 234 571 426 435 573 461 417 507 443 288 134 0 0 0 0 0 0 6 112 215 170 76
1974 2185 2142 2048 2049 1934 1588 1588 1415 1236 1080 1041 879 837 829 866 1237 990 975 1472 1591 1644 1860 2067 2087 1795 1830 1879 1643 1695 1661 1770 1824 1875 1849 1602 1617 1552 1473 1368 1236 1388 1432 1646 1688 1638 1448 1249 1431 1360 1305 986 1263 1028 836 894 1521 1118 1350 2079 1186 1061 424 192 347 479 389 434 475 528 361 180 60 0 0 0 0 0 0 0 0 1 96 134 83
2044 2088 2143 2000 2045 1813 1676 1722 1433 1244 1246 1075 969 1089 1619 1464 1476 1729 1722 1772 1746 1702 1938 2110 2042 1952 2121 2009 1931 1955 1821 1688 1528 1541 2017 1710 1702 1674 1630 1496 1322 1373 1414 1573 1681 1638 1450 1320 1410 1344 1212 1390 930 528 879 659 438 336 1126 1218 912 917 682 584 581 336 438 330 49 44 48 1 20 0 0 0 0 0 0 0 0 0 0 0 8
2166 1994 2040 1997 1875 1986 1688 1496 1252 1192 1455 1132 1226 1491 1297 1840 1924 2121 2226 1781 1795 1874 1675 1421 1574 1662 2112 1859 1487 1262 1328 1336 1328 1338 1408 1775 1534 1643 1618 1595 1608 1548 1285 1272 1438 1554 1676 1560 1670 1663 1521 1542 1630 924 1090 648 351 1082 892 1262 1116 841 662 1070 748 952 206 315 165 4 2 8 0 0 0 0 0 0 0 0 0 0 0 0 1
2146 2078 1927 2103 2026 1826 1647 1481 1445 1517 1369 1363 1341 1470 1876 1892 2152 2202 1977 1954 1717 1628 1589 1614 1610 1632 1499 1416 1400 1315 1311 1323 1359 1251 1133 1022 1043 1754 1634 1649 1771 1617 1348 1317 1569 1788 1898 1918 1863 1776 1562 1597 1608 1531 1203 1500 1352 1223 994 803 669 794 636 862 773 526 300 358 266 15 3 1 0 0 0 0 0 0 0 0 0 0 0 0 0
2005 2055 2021 1928 1962 1822 1527 1420 1475 1475 1402 1291 1479 1905 2033 2052 2278 2356 2301 2194 1982 1761 1679 1571 1670 1553 1351 1359 1292 1454 1402 1294 1099 1185 1354 995 1163 1322 1794 1806 1667 1657 1447 1630 1850 1648 1819 1860 1886 1855 1717 1732 1692 1419 1481 1622 1505 1510 883 1007 1170 742 529 573 739 506 506 465 284 86 18 3 0 0 0 0 0 0 0 0 0 0 0 0 0
Wind_Speed
29 33 33 34 30 29 30 31 29 28 27 28 28 32 36 37 39 41 41 42 40 38 36 35 35 35 33 32 32 32 32 31 29 27 27 27 27 28 25 24 23 23 22 22 22 21 20 19 19 18 18 18 19 19 19 19 17 nan nan 16 16 14 12 12 12 13 13 14 15 16 18 19 19 19 21 21 19 17 14 15 11 10 8 7 10
31 32 32 33 32 32 33 33 31 29 28 29 31 35 36 37 39 40 41 42 40 38 36 34 33 33 33 33 32 32 32 31 29 28 26 25 25 26 24 24 23 23 24 23 23 21 19 19 19 19 19 19 19 19 19 19 18 16 15 14 13 12 12 12 12 12 13 14 15 17 19 19 21 20 19 20 20 19 17 17 13 9 7 7 8
32 33 33 35 33 33 32 32 31 30 30 31 32 34 36 38 39 40 41 42 41 38 35 33 33 33 33 33 32 33 33 31 30 29 28 26 25 26 25 24 23 24 24 24 23 22 21 21 19 19 19 19 19 20 19 19 17 15 13 13 11 10 10 11 12 11 12 14 15 17 18 19 19 19 16 16 19 16 16 14 14 13 7 7 7
33 32 33 34 33 32 32 32 31 30 31 32 33 35 37 38 38 39 41 41 39 37 35 33 32 32 32 32 32 33 33 33 31 30 28 26 25 26 25 24 24 24 24 24 23 22 21 21 21 20 20 20 20 20 20 19 18 15 13 12 11 9 9 10 8 8 6 8 14 13 9 12 14 18 18 18 18 16 14 12 13 16 15 12 12
32 32 32 32 32 31 32 32 31 31 32 33 33 35 36 36 38 39 40 40 38 36 34 33 32 32 32 32 33 33 33 33 31 30 28 26 24 25 25 25 24 25 25 25 25 22 21 22 21 21 20 20 21 21 20 19 17 15 13 12 10 9 9 9 7 6 4 3 9 8 9 10 11 15 15 17 18 17 16 15 15 14 14 14 13
31 31 30 29 30 31 31 31 32 33 34 34 35 35 35 35 37 38 39 39 37 36 34 33 33 32 32 32 33 33 33 33 32 29 28 26 22 23 24 25 25 25 26 26 25 23 21 21 21 20 20 20 21 21 21 19 17 14 12 11 10 9 10 8 6 4 1 4 14 nan nan 11 9 9 18 16 16 16 15 16 15 14 12 11 12
32 30 29 29 28 30 32 33 33 34 35 35 36 36 36 36 36 37 38 38 36 35 34 33 33 32 31 32 33 33 33 33 31 30 29 26 23 23 24 25 25 25 26 26 26 23 22 22 21 21 20 21 21 20 20 19 17 14 12 11 10 10 9 8 6 2 5 4 6 5 nan nan 9 9 15 13 13 14 15 16 14 13 13 12 13
30 29 30 29 29 31 33 34 35 35 35 35 36 37 38 36 37 37 37 38 36 35 33 33 32 31 32 32 33 33 33 33 32 30 29 28 25 23 23 24 24 25 24 25 25 24 22 22 21 21 21 21 19 18 18 18 17 16 13 12 11 9 9 8 7 2 7 5 5 5 6 9 10 8 14 15 12 11 11 11 12 12 15 14 11
30 30 30 31 32 35 33 35 35 35 35 35 36 38 39 37 36 37 38 37 35 34 33 32 31 31 32 32 33 33 32 33 31 29 26 28 26 22 20 20 21 23 23 22 23 22 22 21 20 20 20 20 19 18 17 17 16 16 15 13 12 10 7 8 9 10 6 6 5 5 7 7 8 8 9 11 11 13 8 9 14 15 16 15 13
31 31 32 32 33 34 33 34 35 35 35 36 37 37 37 37 36 36 37 36 34 32 31 31 31 31 32 34 34 34 33 32 31 28 24 24 26 23 18 16 18 20 20 21 22 21 20 20 20 20 19 19 19 18 17 16 16 15 15 14 12 11 9 6 9 2 8 7 7 7 9 10 9 9 11 13 13 10 13 18 16 14 12 14 15
34 34 34 36 38 33 33 35 36 37 37 37 37 36 36 36 35 35 34 33 32 31 30 30 30 31 33 33 34 34 34 32 29 27 25 24 23 21 17 14 16 17 19 20 20 21 20 20 21 19 19 18 18 17 16 16 16 15 14 14 13 11 10 9 10 7 9 10 10 8 9 11 9 8 11 12 nan 11 nan 14 13 13 15 15 16
37 37 36 36 39 33 33 36 37 37 38 38 36 36 35 34 35 34 33 31 29 29 28 27 28 31 34 35 34 34 34 32 30 28 26 23 22 18 15 16 16 17 19 21 21 21 21 21 22 20 18 18 18 18 17 17 17 16 14 14 12 9 6 9 5 7 9 10 9 8 10 12 12 12 15 14 14 14 14 13 14 15 16 16 nan
38 37 37 37 36 34 34 36 38 38 38 38 37 36 35 34 33 32 31 29 27 26 26 26 27 28 31 33 34 34 34 33 31 29 26 23 21 18 15 15 18 19 19 21 22 22 21 21 21 19 18 19 20 18 17 18 18 17 15 13 12 9 4 9 6 8 9 10 10 11 11 11 11 12 12 12 13 13 13 nan nan nan nan nan 18
38 38 36 36 35 37 35 37 38 39 39 38 37 36 34 33 32 31 29 27 26 25 25 26 27 27 28 29 29 28 30 31 32 31 29 25 21 18 16 16 18 18 19 21 23 22 21 20 20 20 18 19 20 17 17 19 19 17 15 14 12 9 8 4 10 9 10 11 11 12 11 10 11 13 12 13 14 14 14 nan 15 16 nan 17 18
38 37 36 35 36 36 38 37 38 38 37 36 36 35 33 32 30 29 28 26 25 25 25 25 26 28 28 29 29 28 31 31 31 32 31 27 21 18 17 18 19 17 18 21 22 21 20 20 20 18 17 17 19 18 17 19 18 16 15 14 12 9 8 5 7 10 11 10 11 13 13 11 13 15 15 14 13 13 nan 15 15 16 16 16 nan
37 37 36 36 35 36 35 36 36 36 36 36 35 34 32 30 29 28 27 26 25 25 25 26 27 27 27 27 30 30 32 32 32 32 30 27 22 19 18 19 19 17 17 19 21 22 21 21 19 16 16 15 19 20 19 19 17 16 14 13 10 3 2 3 9 9 9 11 12 13 13 13 14 13 13 14 14 14 14 nan nan nan nan nan nan
36 36 37 37 36 34 33 33 33 35 35 34 33 31 30 28 27 26 26 25 24 24 25 26 28 28 28 28 31 32 33 33 33 33 31 26 22 21 20 19 19 18 17 18 20 21 22 22 20 18 16 14 18 21 21 20 18 16 14 12 9 6 5 4 10 10 11 11 12 13 14 14 15 15 16 14 nan nan nan nan nan nan nan nan nan
36 36 36 36 34 33 32 33 33 32 31 29 28 28 28 27 26 25 25 24 23 24 25 25 26 27 27 28 30 31 31 31 31 32 30 27 24 23 22 20 20 18 17 18 19 21 23 21 20 19 17 17 20 22 23 21 18 16 14 13 11 8 4 6 13 12 12 12 15 16 16 17 18 18 16 16 16 15 15 15 15 16 16 nan nan
35 36 36 35 33 32 31 30 28 26 26 24 23 25 26 26 26 25 24 23 23 24 26 26 27 27 27 28 29 30 30 30 30 30 29 26 23 23 23 21 19 19 17 17 18 20 20 21 23 22 19 19 20 22 25 24 20 17 16 14 11 7 1 6 14 14 13 13 15 16 17 19 18 17 19 17 nan 16 15 15 15 nan nan nan nan
34 35 34 32 31 30 28 26 23 22 21 22 23 24 25 26 25 25 24 24 24 25 26 27 28 28 29 29 28 28 28 27 28 29 29 26 23 21 24 22 20 19 18 18 19 20 20 24 25 24 23 19 19 23 27 26 22 19 16 16 9 7 8 15 16 16 15 16 16 17 20 19 20 20 19 18 17 16 16 17 16 16 16 16 17
32 33 33 31 30 29 27 22 21 22 22 23 23 24 26 26 25 26 25 25 25 25 26 27 27 26 27 26 25 23 24 25 26 27 29 26 26 25 25 24 22 20 19 19 20 21 22 23 25 23 22 18 19 25 28 27 23 19 19 14 9 6 16 15 16 15 16 17 18 19 21 21 21 21 20 20 19 17 17 16 16 16 16 17 17
33 32 32 33 30 28 26 24 22 22 21 23 23 24 25 25 26 26 24 25 25 27 25 23 23 24 24 25 21 20 22 25 23 26 25 28 26 27 25 25 24 22 20 20 22 24 22 22 24 25 21 19 25 21 23 25 23 19 16 14 8 17 15 16 18 17 18 19 19 20 20 22 24 22 21 21 20 20 19 17 17 17 nan nan nan
33 31 32 32 30 27 26 23 22 21 23 24 24 25 26 24 26 25 24 25 26 25 25 22 21 23 23 22 21 19 22 25 18 22 25 25 26 26 26 26 26 23 20 20 22 22 20 21 23 24 21 14 17 18 18 20 19 20 15 11 17 17 18 17 17 19 19 20 20 21 21 24 24 24 23 22 22 22 22 21 20 20 19 nan nan
31 30 31 29 28 26 25 23 22 22 22 23 24 24 24 23 23 23 23 24 24 23 21 18 21 22 24 20 19 20 22 17 26 27 26 23 25 27 28 27 26 23 22 20 22 19 18 20 21 22 19 17 18 17 17 18 18 17 15 16 18 19 18 17 19 20 20 22 22 22 22 23 25 24 24 23 23 23 23 23 23 nan nan nan nan
29 29 29 27 26 24 22 21 21 20 20 21 23 23 23 21 21 21 21 23 22 19 20 15 18 22 23 20 18 19 22 22 21 20 16 21 22 23 23 20 18 19 18 19 18 16 14 19 18 15 18 18 19 19 16 16 17 17 17 18 19 19 20 19 20 20 22 22 24 20 22 25 25 24 25 24 24 24 24 25 24 24 23 22 nan
29 28 27 26 23 22 21 20 20 19 20 20 21 23 21 20 19 19 19 21 23 19 19 16 13 21 21 21 18 15 19 23 20 21 20 23 23 21 20 19 18 17 16 18 15 14 13 16 17 18 20 19 20 17 14 15 16 17 18 19 20 20 21 21 21 21 22 23 22 24 26 24 23 24 26 26 25 25 25 25 25 24 24 24 nan
28 26 25 22 20 21 22 21 21 19 19 20 20 20 17 17 18 18 19 19 21 18 20 17 16 24 22 19 15 15 15 20 21 23 24 23 22 19 19 19 19 17 15 15 14 13 13 14 17 19 20 17 16 15 14 15 16 17 18 20 20 21 21 22 21 22 22 23 25 24 25 24 24 24 26 26 26 26 26 26 26 25 nan 25 25
26 25 23 20 20 21 22 21 21 20 19 19 18 17 16 16 18 20 15 20 18 18 19 16 20 19 18 15 16 16 16 21 20 20 19 20 20 20 21 20 19 17 15 13 14 14 14 16 19 19 17 13 12 12 15 16 16 16 18 20 20 21 21 22 22 22 22 23 24 26 26 26 25 25 26 27 27 27 26 26 26 27 27 27 26
24 24 23 21 20 20 21 21 20 19 18 17 16 15 16 16 18 18 18 23 18 17 17 16 15 19 19 20 21 22 19 20 19 18 18 19 20 21 21 19 17 15 16 15 15 16 15 15 16 15 12 11 11 13 15 16 16 15 17 19 19 21 22 21 21 21 23 23 23 27 28 26 24 25 27 26 27 27 27 27 28 28 29 28 27
22 23 23 21 21 21 21 22 21 18 17 15 14 15 16 17 18 19 24 23 20 16 17 17 15 19 18 21 20 22 21 21 18 17 19 20 20 20 19 18 16 15 16 17 16 15 14 13 11 11 12 11 13 14 14 16 16 16 17 18 19 20 20 20 19 20 22 22 23 27 28 24 22 19 25 26 27 28 28 28 29 29 29 28 27
20 21 21 21 22 21 21 23 23 21 18 14 14 15 17 18 18 22 24 21 20 21 18 17 17 19 15 20 12 21 21 20 18 17 18 20 20 19 18 17 16 16 17 17 14 12 10 11 9 10 12 12 14 15 14 15 16 17 18 18 19 18 18 18 18 18 20 20 22 23 25 24 24 27 27 26 26 27 28 29 29 29 27 27 26
19 19 18 19 20 20 23 24 24 22 17 13 13 15 18 18 18 19 20 22 23 17 17 16 15 15 14 19 19 24 23 22 18 17 18 19 18 18 18 17 17 17 16 16 13 10 10 11 11 11 12 14 14 14 14 14 14 18 18 20 18 16 16 16 17 17 17 18 19 20 20 22 27 27 28 28 26 25 26 27 28 27 27 26 25
17 16 16 17 17 21 24 25 24 21 15 13 16 18 18 18 17 18 21 21 18 18 17 14 15 13 18 21 21 20 20 20 18 17 17 16 17 18 18 17 17 17 16 15 12 10 11 12 12 12 13 13 13 15 13 13 13 17 19 19 16 16 15 15 16 16 17 16 16 17 18 19 22 28 28 25 25 24 24 24 23 25 24 23 22
16 15 15 17 17 20 23 25 24 18 15 16 19 20 18 17 15 18 19 19 18 17 15 16 13 15 19 18 19 19 20 18 18 17 15 15 15 17 17 17 18 16 14 13 11 12 13 12 13 13 14 13 14 14 13 13 15 17 18 17 16 15 14 15 16 16 15 16 16 14 15 15 18 20 21 24 22 22 22 22 21 21 22 21 19
15 13 15 16 16 19 23 22 20 18 15 16 18 18 19 15 13 15 15 16 16 16 17 16 13 13 19 19 19 20 19 17 16 15 15 14 14 16 18 18 16 13 11 12 13 13 13 12 12 13 13 13 14 14 12 14 16 17 17 16 15 14 14 15 14 14 16 16 13 14 13 13 17 16 17 18 21 21 19 19 19 18 18 16 15
16 14 16 18 18 16 20 22 18 15 11 14 16 18 19 14 12 13 13 14 14 15 15 13 13 11 14 18 21 23 20 17 15 15 13 11 9 15 17 15 12 11 12 13 13 12 13 12 12 13 13 14 15 14 13 15 15 16 17 15 14 13 13 15 14 14 16 13 13 12 13 15 15 16 15 10 14 17 18 18 18 18 17 16 15
16 14 14 15 18 16 16 18 17 17 15 18 17 15 19 15 11 12 13 13 13 13 13 13 12 11 13 16 22 22 20 17 16 13 13 7 9 12 12 11 10 11 12 12 11 12 12 12 12 13 12 15 15 15 14 14 15 15 15 14 13 12 13 14 14 13 13 13 13 13 14 15 15 13 14 15 13 13 19 21 19 20 20 19 17
18 16 13 9 14 16 15 18 20 17 16 20 16 10 13 12 12 12 13 11 11 13 15 12 12 9 17 19 20 19 16 14 14 15 12 9 11 11 10 11 11 12 11 10 10 12 12 12 13 13 13 13 14 14 14 14 14 14 14 14 13 12 11 11 13 12 12 13 12 14 14 14 13 14 14 12 14 14 18 17 19 nan nan 18 17
16 16 15 11 8 16 20 23 24 19 18 23 18 11 10 12 13 12 12 12 10 10 13 12 14 11 17 16 16 14 13 12 15 16 13 9 12 13 14 13 13 13 12 10 12 13 13 12 12 13 12 11 13 14 12 13 14 15 15 15 13 13 12 14 14 13 14 13 13 13 12 12 12 13 13 12 13 12 14 15 10 13 nan nan nan
15 14 16 14 13 13 17 24 24 21 19 22 21 16 11 13 12 12 13 13 9 7 11 15 16 11 14 14 15 10 13 14 14 15 9 10 16 16 17 15 14 14 13 11 13 13 12 13 12 12 12 12 14 11 7 11 15 16 15 14 16 15 15 14 14 15 14 13 12 11 12 11 11 12 12 11 11 13 12 12 10 12 14 nan nan
15 14 15 16 16 17 16 23 24 25 24 19 17 18 17 13 9 9 11 14 8 12 13 15 15 16 15 16 16 17 14 14 14 10 11 18 18 18 17 16 15 14 14 13 12 13 12 12 13 10 11 12 13 12 11 13 16 15 15 14 14 11 11 10 14 14 13 12 11 12 11 10 9 11 10 11 12 12 12 12 12 12 12 14 17
15 15 15 15 16 18 17 23 24 27 27 16 12 14 15 13 14 11 12 14 15 14 15 17 16 18 17 17 17 18 14 13 12 13 18 18 19 18 17 17 15 14 13 13 13 13 13 12 11 10 9 12 12 13 14 14 13 14 16 14 16 15 14 7 7 13 12 12 12 12 11 11 10 10 10 11 12 13 14 14 13 13 13 15 16
17 16 16 16 17 16 17 22 24 28 27 17 13 14 14 13 12 17 12 14 16 14 16 17 18 19 19 19 18 17 17 15 15 16 17 17 17 16 15 15 12 12 12 12 12 12 11 11 10 11 11 11 12 13 14 10 13 14 15 15 12 13 11 11 13 13 14 14 13 13 12 12 13 12 13 13 13 nan nan nan nan 15 16 17 18
16 15 17 16 15 16 19 24 25 29 27 23 16 15 13 10 12 16 14 15 16 15 16 18 17 19 20 19 19 17 17 16 15 15 14 15 14 13 14 12 11 11 11 10 11 10 11 10 10 11 11 12 12 13 10 10 12 15 12 9 11 11 14 12 13 14 15 16 15 15 14 14 15 16 15 15 nan nan nan nan nan 18 18 19 19
16 15 17 16 18 18 21 23 25 27 27 27 18 13 13 15 16 16 15 15 16 15 15 16 16 17 19 18 19 17 17 16 15 14 14 15 13 13 13 11 10 10 10 9 10 11 11 10 11 11 11 11 12 14 12 12 14 9 14 13 12 11 12 14 15 16 14 15 16 16 16 16 17 16 15 nan nan nan nan nan nan nan 19 19 19
17 17 18 18 19 21 23 23 25 26 25 25 23 16 16 15 16 15 13 12 13 13 13 14 14 15 16 18 17 17 17 17 16 15 16 16 16 14 12 11 10 10 10 10 10 11 11 10 12 11 10 10 12 14 13 11 13 12 11 8 13 10 13 15 16 17 14 14 15 16 17 17 17 16 nan nan nan nan nan nan nan 19 18 18 nan
19 20 19 19 20 23 24 24 24 25 25 23 21 16 18 15 15 13 12 11 12 12 13 13 13 15 16 16 17 17 17 18 18 17 17 16 16 14 12 11 11 11 11 11 11 11 11 11 14 12 11 9 18 13 10 11 13 10 11 13 15 12 13 16 15 18 17 15 15 16 16 17 nan nan nan nan nan nan nan nan nan nan nan 18 nan
21 21 19 20 20 24 25 24 24 23 23 23 20 17 17 16 14 12 11 11 11 13 13 13 14 15 16 17 17 17 18 18 17 17 18 17 16 16 14 13 13 13 13 11 12 12 12 13 15 13 14 11 14 12 10 13 12 8 10 13 12 14 16 10 16 15 18 17 nan nan nan nan nan nan nan nan nan nan nan nan nan nan nan nan nan
23 19 21 21 20 23 25 26 25 24 24 24 20 17 15 15 14 12 12 12 12 12 13 13 13 14 16 17 17 18 18 18 17 17 18 18 18 18 16 17 15 16 14 13 13 13 13 15 15 15 14 14 17 14 14 10 8 12 13 13 13 13 16 12 17 11 16 17 17 nan nan nan nan nan nan nan nan nan nan nan nan nan nan nan nan
22 20 21 21 20 22 25 26 25 23 23 23 19 16 14 15 13 12 12 11 10 10 11 12 13 14 15 17 18 18 18 18 18 18 18 18 19 19 18 18 17 17 14 14 14 14 14 15 15 14 14 14 17 15 12 11 9 12 12 11 12 13 14 14 12 12 16 16 16 nan nan nan nan nan nan nan nan nan nan nan nan nan nan nan nan
22 20 21 19 21 23 24 22 23 22 22 21 19 16 14 14 14 13 11 10 9 10 11 13 14 15 16 16 16 17 17 17 17 17 17 17 17 18 18 18 17 17 14 15 13 13 14 14 15 15 13 12 15 14 12 9 9 10 11 11 14 13 16 11 14 12 15 16 17 nan nan nan nan nan nan nan nan nan nan nan nan nan nan nan nan
Wind_Direction
293 293 292 290 291 291 290 292 289 287 293 294 295 303 311 313 316 319 321 324 325 321 317 318 321 321 321 319 315 314 314 316 317 319 322 324 325 321 318 316 317 319 320 318 317 314 313 311 305 300 301 305 306 306 304 301 298 nan nan 296 283 289 284 282 284 282 276 271 270 270 263 260 260 251 250 249 245 239 240 248 251 258 262 264 257
292 289 286 291 288 291 293 292 288 286 288 293 294 302 306 309 313 316 318 321 323 321 316 316 317 318 319 318 315 315 316 317 316 317 319 323 324 322 319 317 318 319 320 322 317 314 311 310 309 309 305 306 307 307 306 307 308 307 308 282 282 280 282 280 274 276 278 273 272 267 265 265 257 250 240 242 240 238 236 234 245 254 246 232 255
284 286 286 290 289 289 289 289 288 286 288 289 293 298 302 306 310 314 317 318 319 319 315 313 315 317 318 318 316 316 317 317 316 316 320 325 326 322 320 318 318 319 324 319 318 315 317 315 314 309 309 307 308 309 311 309 310 311 309 299 284 281 278 277 283 280 280 287 285 275 269 263 268 269 259 247 244 237 239 241 246 259 273 272 255
282 283 285 288 288 288 289 290 288 287 289 291 294 297 300 304 308 312 314 314 315 316 313 311 313 316 317 317 316 317 317 317 315 317 320 326 326 325 321 318 317 324 322 319 318 322 319 315 313 313 313 311 311 312 314 314 312 315 315 307 292 281 277 271 269 279 300 323 322 305 282 273 254 243 248 248 252 247 247 244 246 248 254 251 245
280 282 285 290 292 289 289 289 288 288 290 291 291 296 300 304 307 311 312 311 311 312 311 310 313 316 318 317 317 317 316 315 315 318 321 324 329 325 321 317 323 325 322 320 320 323 322 317 317 316 315 316 316 316 317 317 315 314 315 307 297 284 275 268 260 254 251 358 32 6 286 263 251 245 247 245 244 238 239 239 238 241 242 240 237
280 279 284 288 290 290 289 289 289 289 289 289 290 294 300 303 307 310 311 310 310 310 310 312 314 317 318 317 316 316 316 316 318 320 320 322 328 323 322 324 324 324 321 321 321 324 324 321 319 319 319 318 318 319 320 320 318 317 316 309 300 289 273 267 264 272 275 65 46 nan nan 284 264 258 244 247 239 231 229 227 224 230 235 246 254
280 278 282 285 285 288 288 288 289 288 289 290 291 294 298 303 306 308 311 310 310 311 312 313 315 317 317 317 316 315 314 314 313 314 313 315 321 326 328 326 325 325 325 322 321 324 326 325 323 323 322 321 318 317 320 322 321 323 320 315 302 291 279 264 271 279 89 54 278 274 nan nan 270 255 241 241 240 238 231 225 221 221 230 228 227
276 275 279 281 282 286 288 288 288 288 289 291 293 297 300 303 306 309 310 310 309 311 312 313 314 317 318 316 315 314 313 311 311 312 315 319 324 330 328 328 328 330 327 321 320 322 324 326 325 324 326 326 321 318 318 321 324 326 326 319 306 293 284 276 279 286 81 304 315 290 297 289 271 264 242 238 242 246 246 249 236 233 229 228 233
276 278 277 278 282 289 287 287 287 289 290 292 295 299 302 303 307 308 309 308 308 311 312 314 317 319 318 316 314 314 312 309 310 315 317 320 322 326 328 327 327 328 326 319 316 318 319 323 323 323 326 326 323 321 321 322 324 326 326 323 313 298 296 299 306 6 327 297 295 283 270 271 273 258 250 243 230 226 248 277 283 256 237 238 247
275 276 277 278 284 286 286 286 287 289 291 294 296 299 301 303 306 307 307 305 306 309 313 316 319 320 318 317 315 313 309 308 310 310 304 313 321 323 330 327 320 323 320 315 314 314 314 319 320 322 321 320 320 318 319 320 324 325 324 322 316 312 305 13 30 1 284 285 272 247 221 230 257 250 241 238 228 219 237 233 227 231 247 257 251
277 276 277 279 286 283 284 285 286 288 291 293 297 299 301 302 304 305 302 302 304 308 312 316 319 318 316 314 312 311 308 305 305 303 300 302 308 317 325 309 309 314 311 307 310 309 310 314 315 311 314 312 308 315 320 322 322 322 324 321 319 326 360 360 53 276 284 297 299 301 281 262 255 251 250 250 nan 248 nan 241 246 251 253 252 250
279 279 280 280 284 283 284 286 287 290 294 296 297 300 300 301 303 302 299 299 303 308 310 312 314 314 316 314 312 310 306 303 302 301 301 299 298 297 296 308 305 301 303 306 305 304 309 311 312 314 317 318 314 314 319 322 320 319 321 322 321 330 15 46 17 294 285 279 281 284 279 275 272 262 250 244 246 244 242 244 248 248 247 246 nan
280 280 280 284 287 284 286 287 290 292 295 298 298 299 300 299 299 297 296 296 302 305 307 309 309 311 312 312 312 309 306 305 303 302 303 303 301 297 291 293 296 295 296 296 295 302 304 303 311 316 323 324 318 313 315 321 318 316 317 318 321 330 21 87 300 281 280 280 282 281 282 276 272 270 262 253 249 245 245 nan nan nan nan nan 248
282 282 285 288 286 290 287 289 292 294 295 297 297 298 299 298 296 291 291 295 300 302 303 304 305 305 304 304 304 302 302 300 303 303 307 305 301 296 289 284 293 293 290 292 294 299 299 302 312 316 316 319 321 312 312 317 314 314 314 314 318 333 19 344 278 277 274 273 274 279 276 270 268 263 268 265 255 250 249 nan 250 251 nan 249 245
285 288 289 288 289 291 291 291 292 294 295 295 297 298 299 298 292 290 290 293 294 293 295 299 301 301 302 300 300 298 298 300 302 303 306 307 301 297 291 286 287 294 294 292 296 300 301 306 305 308 307 314 321 313 307 310 310 309 309 311 321 352 47 292 286 277 278 286 282 275 272 275 273 267 262 260 259 262 nan 250 250 252 252 253 nan
289 289 290 290 291 293 295 295 295 295 295 296 297 299 297 292 288 287 290 292 292 292 295 296 296 296 298 300 298 298 292 297 299 300 302 302 303 301 296 294 296 302 304 296 299 299 298 298 299 305 305 310 319 313 304 306 304 303 303 304 310 334 123 197 279 272 268 265 266 268 270 267 257 272 271 266 264 260 259 nan nan nan nan nan nan
289 290 292 293 295 297 297 299 296 296 296 297 297 296 291 287 285 284 287 290 292 293 295 297 300 299 298 299 292 288 290 296 300 299 300 299 299 301 301 298 302 309 310 301 296 293 293 297 301 303 302 305 313 311 306 301 299 296 292 293 280 251 211 194 273 262 253 254 265 267 270 270 275 272 263 263 nan nan nan nan nan nan nan nan nan
291 292 293 297 299 301 299 300 299 298 297 295 293 290 286 282 280 283 286 288 289 293 295 295 295 292 291 286 284 287 290 294 295 296 298 296 296 300 302 299 300 307 308 302 294 290 292 297 297 297 295 303 310 310 304 297 291 288 286 279 271 251 224 255 265 264 262 256 258 260 264 267 264 266 270 267 266 268 266 261 260 262 261 nan nan
292 294 296 299 302 302 302 300 303 300 300 297 294 284 279 280 281 283 286 286 287 292 296 296 294 294 293 290 288 287 290 292 291 292 294 294 295 300 300 298 295 299 298 294 291 289 294 294 291 292 294 304 311 308 303 293 289 289 281 277 276 287 316 273 267 268 269 262 258 261 264 259 270 271 265 268 nan 260 261 263 267 nan nan nan nan
294 297 298 300 301 303 301 301 303 300 295 289 286 285 278 279 281 283 282 286 289 292 298 299 301 300 298 297 295 296 294 291 292 291 292 289 288 294 293 291 292 295 292 288 286 285 290 290 289 291 295 301 308 305 299 294 289 287 287 281 296 339 277 253 254 256 254 252 256 261 265 272 267 267 270 269 268 274 267 269 272 268 266 263 259
293 301 301 301 303 303 304 300 300 295 288 282 278 278 277 278 277 277 281 285 288 292 293 299 302 301 301 295 295 293 291 288 288 286 289 284 284 289 287 286 286 290 289 284 281 282 283 288 285 289 298 294 297 298 295 292 288 291 288 301 319 278 255 262 260 262 263 264 261 261 267 265 265 269 273 276 278 270 273 274 268 268 268 266 266
300 303 306 305 303 302 305 301 294 294 285 275 270 270 273 280 282 283 286 288 288 289 292 296 302 300 299 295 292 287 283 274 274 286 283 284 288 288 284 281 283 285 284 283 280 281 281 284 285 289 294 293 303 301 296 290 288 291 299 308 309 259 259 258 260 258 258 258 260 267 273 270 269 270 270 274 276 276 274 272 271 270 nan nan nan
303 304 304 306 303 300 298 297 293 289 283 274 270 271 278 276 281 285 284 290 288 287 291 291 298 297 298 290 286 284 275 281 287 281 279 282 282 281 278 281 282 281 283 279 278 280 281 282 283 286 285 291 313 301 294 293 290 295 301 303 271 267 260 257 259 256 254 257 258 270 268 267 271 272 272 273 274 275 274 273 273 271 271 nan nan
305 305 303 304 304 299 296 291 291 287 279 271 271 272 276 276 279 282 282 283 284 289 284 298 298 299 287 281 280 275 274 271 269 273 280 279 279 279 280 281 280 280 282 282 282 284 281 279 278 284 290 298 301 302 295 289 291 295 287 279 276 275 271 260 254 256 258 261 260 267 266 264 266 271 273 273 274 276 275 275 273 nan nan nan nan
303 302 300 302 305 298 291 287 287 288 283 275 275 274 275 276 278 279 281 281 282 274 283 295 292 291 280 274 282 284 286 277 279 276 276 284 284 283 284 281 280 278 286 281 287 289 300 291 280 280 284 293 300 301 291 287 289 287 281 277 277 273 266 260 257 255 256 259 260 260 261 264 266 271 273 272 271 272 273 274 276 276 276 277 nan
304 303 301 301 301 293 287 283 286 290 289 283 282 276 276 276 278 276 277 280 278 286 287 289 273 282 284 283 280 280 275 280 288 294 290 280 283 282 279 280 280 278 277 276 281 294 290 288 286 282 284 294 294 291 286 285 287 285 283 276 275 276 270 267 264 261 260 261 262 260 265 264 263 271 272 271 270 271 273 273 274 276 276 276 nan
305 304 300 299 298 288 282 281 283 289 292 290 286 282 276 274 277 280 280 277 281 283 291 285 285 264 267 278 275 274 270 278 281 274 276 278 276 274 274 278 284 284 280 279 283 289 292 284 276 277 285 295 292 284 285 284 282 283 280 279 276 274 272 269 267 265 266 264 265 268 269 270 270 272 272 272 272 273 273 274 274 274 nan 275 276
305 303 300 297 295 289 283 282 286 288 286 290 299 288 277 274 275 271 275 265 265 274 263 275 280 277 283 276 287 276 266 275 275 275 276 276 274 269 272 277 277 280 280 282 288 288 283 272 269 279 293 293 284 285 283 281 279 278 278 276 277 273 270 269 267 268 266 267 270 270 267 268 273 274 272 272 272 272 273 273 274 275 275 274 275
307 302 293 290 289 284 283 282 283 292 289 288 296 289 280 276 272 275 269 263 263 254 269 261 262 282 291 292 276 275 280 276 277 279 276 273 275 275 276 274 272 276 282 280 280 279 275 268 271 282 284 278 278 282 280 280 281 279 276 278 277 274 272 271 271 270 267 267 267 269 269 269 269 271 273 272 271 273 276 274 273 273 273 276 277
303 298 289 283 281 284 283 282 281 289 292 291 289 288 285 279 273 270 261 257 254 246 239 250 254 264 259 247 256 269 271 270 274 277 276 277 278 278 278 276 273 273 276 277 273 275 271 268 271 270 274 277 279 277 279 283 282 280 277 275 272 270 270 270 269 268 269 270 268 271 272 267 262 252 257 272 273 275 278 278 277 277 278 279 281
303 302 291 280 279 282 283 277 274 277 286 295 288 285 279 272 269 263 263 260 257 247 246 243 244 249 253 273 264 272 269 267 268 272 278 281 280 282 281 277 274 272 275 275 267 263 258 258 257 260 271 277 274 277 284 284 284 282 277 274 269 268 269 268 266 265 267 269 271 271 270 265 260 255 251 260 273 276 278 280 282 282 283 282 281
304 302 290 276 276 281 277 276 274 274 285 295 286 282 278 275 269 271 266 258 254 252 254 247 248 247 264 273 265 254 253 256 257 268 279 282 283 285 283 276 270 271 273 271 264 253 247 242 245 249 259 264 272 281 281 285 285 278 274 265 266 269 269 269 268 265 265 267 269 269 270 270 265 260 257 257 265 268 277 284 284 286 285 283 281
296 295 289 276 275 274 270 270 270 274 279 286 274 273 271 275 276 269 262 260 256 251 251 245 238 255 257 256 264 263 257 256 261 269 279 278 279 284 285 281 273 270 265 264 259 248 244 247 252 257 264 270 277 277 282 276 272 267 265 266 266 266 268 270 268 268 268 270 269 272 273 272 273 266 261 262 263 267 272 274 275 276 278 281 279
296 286 291 280 264 264 263 260 266 274 278 261 266 271 274 271 267 272 268 264 255 252 251 247 245 259 268 261 267 272 273 270 270 275 273 270 277 282 284 283 274 268 262 260 253 242 244 251 259 265 267 276 279 281 280 277 267 264 263 264 264 262 265 268 263 260 260 259 259 268 270 276 265 267 271 271 268 270 272 276 280 280 282 282 280
287 278 290 288 275 265 262 265 262 272 273 267 268 270 269 274 284 286 280 272 261 257 255 250 254 251 253 268 268 271 271 273 276 277 274 269 268 266 271 273 271 262 250 249 242 243 251 258 261 266 272 275 279 280 280 270 266 263 265 267 265 263 260 261 263 271 267 261 262 261 263 262 264 261 261 269 278 268 266 269 270 270 272 275 280
302 294 293 293 295 277 266 267 266 270 277 273 263 266 271 268 269 277 273 272 263 259 258 258 260 251 267 266 271 271 273 275 274 271 260 242 260 260 258 265 265 247 240 246 247 252 256 257 258 266 274 275 277 277 269 271 273 268 263 262 260 258 260 261 262 266 267 272 268 267 265 263 275 281 285 278 268 272 267 271 270 267 265 271 275
301 296 294 293 289 281 266 267 268 262 269 259 254 254 255 265 270 275 271 271 269 267 266 261 266 280 284 280 273 270 272 274 268 262 265 284 264 260 254 261 259 245 245 247 250 254 260 257 261 267 266 276 279 278 275 276 276 274 269 264 258 257 255 261 266 269 278 275 278 274 271 271 272 279 286 291 287 286 276 275 275 267 258 257 263
295 289 295 292 292 282 276 268 269 277 281 275 272 263 263 264 264 265 269 268 269 271 266 258 265 269 279 275 270 266 264 267 268 261 260 258 258 255 257 261 253 244 245 249 252 255 260 259 262 265 268 277 278 282 282 284 287 285 273 265 263 258 262 270 271 282 284 280 275 269 266 270 272 271 271 266 274 285 291 289 289 nan nan 257 255
295 297 298 297 282 281 277 268 271 283 287 281 295 282 269 269 265 257 266 259 244 262 285 294 289 271 266 260 263 258 256 264 269 260 245 251 258 255 252 254 244 247 249 252 257 257 256 258 263 265 267 271 281 279 286 287 290 283 275 272 275 277 271 269 278 282 277 279 274 272 275 276 276 274 271 275 276 274 277 295 308 289 nan nan nan
294 293 293 291 283 277 274 272 277 283 280 277 279 276 265 259 263 263 263 262 241 258 263 269 268 263 272 282 276 264 267 267 259 251 264 267 263 257 253 250 247 250 253 257 256 256 259 263 268 269 272 267 269 275 287 286 282 282 277 268 254 254 260 266 276 272 269 273 280 279 273 276 279 276 277 278 280 273 274 277 278 281 288 nan nan
295 294 293 288 283 275 272 271 268 272 265 275 274 280 278 269 263 275 280 275 281 264 262 254 262 260 266 267 269 273 268 266 255 253 269 267 264 258 257 253 249 250 252 251 255 257 258 260 264 267 277 275 271 293 298 288 285 275 261 244 265 261 254 260 265 267 270 274 278 276 277 282 284 284 283 289 287 287 285 283 283 279 282 290 301
284 284 289 283 279 277 276 267 265 264 268 286 282 271 274 272 271 267 254 275 270 268 263 260 263 265 267 266 265 274 275 272 274 270 265 268 261 259 259 255 250 247 245 251 254 260 261 262 267 271 274 276 272 278 280 289 287 288 284 271 244 258 265 263 282 278 283 280 278 283 288 288 288 284 289 290 293 291 282 279 277 277 279 284 284
278 281 278 279 275 275 269 268 265 264 271 292 299 286 258 231 247 255 249 262 263 262 264 263 267 268 266 268 272 275 281 279 274 268 263 262 261 257 254 249 242 241 246 251 256 260 262 268 278 275 278 275 277 283 286 276 276 279 270 268 267 264 237 268 264 270 269 274 282 286 292 297 293 291 290 289 284 nan nan nan nan 282 286 286 285
266 270 271 273 267 268 263 264 264 265 282 293 291 275 269 260 247 251 259 257 263 264 261 262 266 269 272 273 278 282 284 279 277 273 268 263 261 254 248 241 236 234 239 249 256 260 262 267 275 279 281 283 280 282 287 275 279 290 277 258 269 268 284 283 283 275 272 274 279 283 285 285 287 286 286 290 nan nan nan nan nan 285 287 285 285
264 266 266 265 255 265 264 265 267 273 286 291 291 281 277 267 257 256 260 261 263 267 266 266 266 270 273 279 281 283 281 277 274 274 268 264 260 253 249 244 239 239 237 244 254 258 264 269 274 277 283 279 280 279 295 282 273 243 262 264 257 279 276 292 287 273 272 275 277 279 276 278 279 284 287 nan nan nan nan nan nan nan 288 287 286
261 262 262 260 262 266 268 270 269 275 284 293 291 287 281 275 271 272 277 277 275 275 275 275 276 278 280 277 279 280 279 277 277 274 269 264 258 251 250 249 251 248 244 244 250 260 266 272 275 272 282 279 282 274 272 272 273 266 256 250 259 273 296 300 292 284 274 274 278 277 278 276 279 278 nan nan nan nan nan nan nan 289 287 286 nan
261 259 258 261 261 264 268 272 274 276 283 287 289 281 279 277 282 285 283 276 271 268 268 273 278 277 275 282 278 275 274 274 273 274 271 269 263 256 255 251 256 257 255 251 256 264 269 270 273 270 268 283 265 259 264 276 257 247 263 253 268 285 301 307 296 288 291 280 277 279 279 277 nan nan nan nan nan nan nan nan nan nan nan 286 nan
261 261 257 259 263 267 270 271 272 277 280 281 285 282 272 277 279 274 267 265 263 265 270 270 271 276 280 282 279 277 276 276 275 276 271 271 264 263 262 261 264 268 266 265 264 266 264 263 264 263 256 246 275 281 278 260 278 270 269 269 265 282 297 308 287 298 290 295 nan nan nan nan nan nan nan nan nan nan nan nan nan nan nan nan nan
262 264 258 257 263 270 275 274 273 276 280 285 285 280 278 279 273 262 260 255 259 262 267 270 275 280 284 283 283 278 277 276 275 271 269 267 269 267 269 269 271 273 272 269 266 266 266 266 266 262 262 253 243 259 266 278 287 280 280 270 271 284 293 286 287 295 291 290 291 nan nan nan nan nan nan nan nan nan nan nan nan nan nan nan nan
254 258 255 256 264 272 277 277 278 274 279 281 280 283 281 274 266 260 261 257 262 273 281 288 289 289 288 285 283 281 279 275 271 266 262 265 267 269 271 273 274 273 274 270 268 265 264 264 267 263 261 260 253 257 260 257 265 264 268 261 278 280 289 281 286 284 281 288 291 nan nan nan nan nan nan nan nan nan nan nan nan nan nan nan nan
244 250 253 258 265 272 277 279 277 274 279 281 283 285 281 273 264 262 266 270 281 288 289 293 289 289 286 283 282 278 274 270 265 263 263 264 269 275 275 276 275 273 271 271 267 266 264 261 261 262 263 261 258 265 256 256 253 260 263 262 247 257 265 293 290 294 287 284 285 nan nan nan nan nan nan nan nan nan nan nan nan nan nan nan nan